User: anonymous   Login
Location: Emory University Observatory
(33.7903°N, 84.3267°W)
Time: 13:38:04
(UTC-05:00)
Language:

EO-79 - Orbit

View from above orbital plane
View from above orbital plane
View from above satellite
View from above satellite

Ground track
Ground track

The orbit data is extracted from the following two-line orbital elements,

1 40025U 14033R   18053.81506966 +.00000219 +00000-0 +29546-4 0  9992
2 40025 097.9087 329.4337 0011974 195.1474 164.9385 14.88640150199267
Epoch (UTC): 22 February 2018 19:33:42
Eccentricity: 0.0011974
inclination: 97.9087°
perigee height: 594 km
apogee height: 610 km
right ascension of ascending node: 329.4337°
argument of perigee: 195.1474°
revolutions per day: 14.88640150
mean anomaly at epoch: 164.9385°
orbit number at epoch: 19926

The dashed part of the orbit path shows where the satellite is in the earth's shadow,  

DLR